Wind_Speed
25 26 27 27 27 28 30 32 34 33 33 34 37 38 38 38 39 40 41 43 44 46 48 51 53 56 58 60 63 65 67 69 71 72 74 75 77 78 79 80 79 78 77 77
26 27 29 28 27 30 32 33 35 36 35 36 37 38 39 40 41 42 43 45 47 49 51 54 56 58 60 63 65 67 69 71 72 74 75 77 78 79 79 79 78 77 77 76
27 28 31 30 28 31 33 34 36 37 37 38 38 39 40 41 42 43 45 47 49 51 54 56 58 61 63 65 67 69 70 72 74 76 77 78 79 79 79 78 77 76 75 73
31 31 32 31 30 31 34 35 36 38 38 39 39 40 41 42 43 45 47 49 52 54 56 59 61 63 65 67 68 70 72 74 76 77 79 79 79 79 78 77 75 74 72 70
33 34 34 32 32 34 36 36 36 38 38 39 40 41 42 44 46 48 50 52 54 56 59 61 63 65 66 68 70 72 74 75 77 79 79 79 78 77 76 75 73 71 69 66
34 36 37 35 34 35 37 37 37 38 39 40 41 43 44 46 48 50 52 54 57 59 61 63 65 67 68 70 72 73 75 77 78 79 79 78 77 76 74 73 70 68 65 62
35 37 38 37 38 38 39 40 41 41 41 42 43 45 46 48 50 52 55 57 59 61 63 65 67 69 70 72 74 75 77 78 79 78 78 77 76 74 73 71 67 64 61 57
35 37 38 39 40 41 42 43 43 44 44 45 46 47 48 50 53 55 57 59 61 63 65 67 69 71 72 73 75 77 78 78 78 77 76 76 74 72 70 67 63 60 56 52
37 38 39 41 42 43 44 45 45 46 46 47 48 50 51 53 55 57 59 61 63 65 67 68 70 72 74 75 77 78 78 78 77 76 75 75 73 70 67 63 60 56 52 48
39 39 41 43 44 45 46 46 47 48 49 49 50 52 54 56 57 59 62 64 66 67 69 70 72 73 76 77 78 79 78 77 76 75 74 72 69 66 62 59 55 51 48 45
40 41 43 44 45 46 47 48 49 50 50 51 53 55 56 58 60 62 64 66 67 69 70 72 73 75 77 78 79 79 78 76 75 74 72 68 64 61 57 53 51 47 44 42
42 43 44 45 46 47 48 49 50 50 52 53 55 57 58 60 62 64 66 68 69 70 72 73 75 76 78 79 79 78 76 75 73 71 68 64 59 54 51 49 46 44 42 41
43 44 45 46 47 48 48 49 50 52 54 55 57 58 60 62 64 66 68 70 71 72 73 75 76 77 78 79 78 77 75 73 70 67 63 59 55 51 46 43 42 41 40 39
44 45 46 47 48 49 50 51 53 54 56 57 58 60 62 64 66 68 69 71 72 73 74 76 77 77 78 78 76 74 72 69 66 63 59 54 50 47 45 42 38 37 37 37
45 46 47 48 49 50 52 53 54 55 57 58 60 62 64 66 68 69 71 72 73 74 75 76 77 77 77 76 74 72 68 65 62 58 54 50 47 45 43 41 38 36 35 34
46 47 48 49 50 51 52 54 55 57 58 60 61 63 65 67 69 70 72 73 74 75 76 77 77 76 75 73 71 68 64 60 57 54 50 47 45 43 41 39 37 35 34 33
47 48 49 50 51 52 53 55 57 58 59 61 63 65 67 68 70 71 73 74 75 75 76 76 76 74 72 70 67 63 59 56 52 50 47 45 43 41 39 37 35 34 33 32
47 48 49 50 51 53 54 56 57 59 61 63 65 67 68 70 72 73 74 74 74 75 75 74 73 71 68 65 63 59 55 52 49 46 44 42 41 39 37 35 34 33 32 31
47 48 50 51 53 54 55 57 59 60 62 64 66 68 70 72 73 75 75 75 75 74 72 71 69 67 64 61 58 55 52 49 46 44 42 40 38 37 36 34 33 32 31 31
48 49 51 52 53 55 57 58 60 62 64 66 68 70 71 73 74 75 75 74 73 72 71 68 66 63 60 57 54 52 49 46 43 41 39 38 37 36 34 33 32 31 30 30
49 50 51 53 54 56 58 60 62 64 66 68 70 71 73 74 74 74 73 71 70 69 68 65 62 59 56 53 51 48 46 43 40 38 37 36 35 34 33 31 30 30 30 30
50 51 53 54 55 57 59 62 64 66 67 69 71 72 73 73 73 72 71 70 68 66 64 61 58 55 52 49 47 45 42 39 37 35 34 34 34 32 31 30 29 29 29 29
51 52 54 56 57 59 61 64 66 67 69 70 72 72 73 72 71 71 69 67 66 63 60 57 55 51 48 46 44 41 39 36 34 33 33 33 32 31 29 29 28 28 28 29
53 55 56 58 60 62 63 65 67 69 70 71 71 72 72 71 69 68 67 64 62 59 57 54 51 48 45 43 41 38 35 33 32 32 31 31 30 29 29 28 27 26 27 28
55 57 59 60 62 64 66 67 68 69 70 71 70 70 69 68 67 65 63 60 58 55 53 50 47 44 42 40 37 35 33 31 30 30 29 29 28 28 28 27 26 25 26 26
58 59 61 63 65 66 67 68 69 70 70 69 68 67 66 64 63 61 59 56 54 51 49 46 43 40 37 36 34 32 30 29 29 28 28 28 27 27 27 26 24 24 24 25
60 62 63 64 65 67 68 69 69 69 68 67 65 63 62 60 59 57 55 52 50 47 44 41 39 36 34 33 31 29 28 27 26 26 26 26 26 26 25 24 23 23 24 24
Wind_Direction
270 274 278 281 284 286 288 290 291 294 294 294 294 296 297 296 296 297 297 298 298 299 300 301 302 303 303 304 305 305 306 306 307 307 307 307 308 308 307 307 307 306 305 304
271 275 279 282 286 286 288 289 291 292 295 294 295 295 296 296 297 297 298 298 299 300 301 302 303 303 304 305 305 306 307 307 308 308 308 309 309 309 308 308 307 307 306 305
273 275 279 283 286 286 287 289 291 293 295 294 294 294 295 296 296 297 298 299 300 301 302 303 304 304 305 306 306 307 308 309 309 309 310 310 310 310 309 309 308 307 307 306
277 279 280 286 286 286 287 289 292 293 294 294 294 295 295 296 297 298 299 300 301 302 303 304 305 305 306 307 308 309 310 310 311 311 311 311 311 311 310 309 309 309 308 307
279 281 283 285 288 288 289 291 293 294 294 295 295 295 295 296 298 299 300 301 302 303 304 305 306 307 308 309 309 310 311 311 312 312 312 312 312 312 311 311 310 310 308 307
279 282 285 288 289 289 291 293 294 295 295 295 295 295 296 297 299 300 301 302 303 305 306 307 307 308 309 310 311 311 312 313 313 313 313 313 313 313 312 311 311 310 309 307
279 282 285 289 290 292 293 295 296 297 296 296 295 296 297 299 300 301 302 304 305 306 307 308 309 310 311 311 312 313 313 314 314 314 314 314 313 313 312 312 311 310 309 307
278 281 286 288 290 292 293 295 296 297 297 296 296 297 298 299 301 302 304 305 306 307 308 309 310 311 311 312 313 313 314 314 314 314 314 314 314 313 313 312 311 310 308 307
279 283 285 287 289 292 293 294 296 296 297 297 297 298 300 301 302 304 305 306 307 308 309 310 311 312 312 313 314 314 315 315 315 314 314 314 314 313 312 311 311 310 308 307
281 283 285 287 289 291 293 294 295 296 296 297 298 300 301 302 303 304 306 307 308 309 310 311 312 312 313 314 314 315 315 315 315 315 315 314 314 313 312 311 310 310 308 307
281 283 285 288 290 291 292 293 294 295 297 298 299 300 302 303 304 305 307 308 309 310 311 311 312 313 314 314 315 315 316 316 315 315 315 315 314 313 312 311 311 310 309 309
281 283 285 288 289 291 291 293 294 296 297 298 300 301 302 303 305 306 308 309 310 310 311 312 313 314 314 315 315 316 316 316 316 316 315 314 313 313 312 311 310 310 309 309
282 284 286 288 289 290 291 293 294 296 297 299 300 302 303 304 306 307 309 309 310 311 312 313 313 314 314 315 316 316 316 316 316 316 315 315 314 313 312 310 309 309 308 309
282 284 285 287 289 290 292 293 294 296 298 299 301 302 304 305 307 308 309 310 311 312 312 313 313 314 314 315 316 316 316 316 315 316 316 315 314 313 312 310 309 307 307 307
282 283 285 287 289 290 292 293 295 297 299 300 302 303 304 306 307 309 310 310 311 312 312 313 313 314 315 315 315 316 315 315 315 315 315 314 314 313 312 311 310 309 308 307
282 284 286 287 289 291 293 294 296 298 299 301 302 304 305 307 308 309 310 311 311 312 312 313 313 314 315 315 315 315 315 315 315 315 314 314 313 312 312 311 310 309 309 308
283 285 286 288 290 292 294 296 297 299 300 301 303 304 306 307 308 309 310 311 311 312 312 313 314 315 315 315 315 315 315 314 314 314 313 313 313 312 311 311 310 310 309 309
284 286 287 289 291 293 295 296 298 299 301 302 304 305 307 308 309 309 310 311 311 312 313 313 314 315 315 315 314 314 314 314 313 313 313 313 312 312 311 311 311 310 310 309
285 286 288 290 292 294 296 298 299 301 302 303 305 306 307 308 309 310 310 311 311 312 313 313 314 314 314 314 314 314 314 313 313 312 312 312 312 311 310 310 310 310 310 310
286 288 290 292 294 296 297 299 300 302 303 304 306 307 308 309 309 310 311 312 312 312 313 314 314 314 314 313 313 313 313 312 312 311 312 312 312 311 310 310 310 310 310 311
288 290 292 293 295 297 299 300 301 303 304 305 306 307 308 309 310 311 311 312 312 312 313 314 314 314 313 313 313 313 312 312 311 311 311 312 312 311 310 309 309 310 311 311
290 292 293 295 297 298 300 301 303 304 305 306 307 308 309 309 310 310 311 311 312 312 313 313 313 313 312 312 312 312 311 311 310 311 312 313 313 313 311 310 309 310 311 312
292 294 295 297 298 300 301 303 304 305 306 307 307 308 309 309 310 310 311 311 312 312 313 313 312 312 312 312 312 311 311 310 310 311 312 313 314 314 313 312 311 311 312 313
294 295 297 298 300 301 302 303 304 305 306 307 308 308 309 309 310 310 311 311 311 312 312 312 312 311 311 311 311 310 310 310 310 311 312 314 314 314 314 313 312 312 313 315
295 297 298 300 301 302 303 303 304 305 306 307 307 308 308 308 309 310 310 311 311 311 311 311 311 310 310 310 310 309 308 309 310 311 313 314 315 316 315 314 313 314 315 317
296 298 299 300 301 302 303 304 304 305 306 306 307 307 307 308 308 309 309 310 310 310 311 311 311 310 310 311 310 308 307 308 310 311 313 315 316 317 317 317 316 316 318 320
297 298 299 300 301 302 303 304 304 305 305 306 306 307 307 307 308 308 309 309 309 310 310 310 310 309 309 310 310 308 307 308 309 311 313 315 317 318 319 318 318 318 320 323
Height
5773 5772 5771 5771 5771 5768 5766 5764 5761 5760 5758 5755 5749 5746 5743 5739 5735 5731 5727 5723 5718 5713 5708 5702 5696 5689 5682 5675 5667 5659 5650 5641 5632 5622 5612 5602 5592 5581 5570 5559 5548 5537 5527 5517
5766 5765 5763 5763 5763 5760 5758 5756 5753 5750 5749 5745 5741 5737 5733 5729 5725 5721 5717 5712 5707 5701 5696 5689 5683 5676 5668 5660 5652 5643 5634 5624 5615 5605 5594 5584 5573 5561 5550 5539 5528 5516 5506 5495
5758 5757 5755 5756 5756 5752 5750 5747 5745 5742 5740 5735 5732 5728 5724 5720 5715 5711 5706 5701 5695 5689 5683 5676 5669 5661 5653 5645 5636 5627 5617 5607 5597 5586 5576 5564 5553 5541 5530 5519 5508 5497 5486 5475
5749 5749 5748 5750 5747 5744 5741 5739 5736 5732 5729 5725 5722 5718 5714 5709 5705 5700 5694 5689 5683 5676 5670 5662 5654 5646 5638 5629 5619 5610 5600 5589 5578 5567 5557 5545 5533 5521 5510 5499 5488 5477 5467 5456
5740 5738 5738 5740 5738 5734 5731 5730 5727 5723 5719 5715 5711 5707 5703 5698 5693 5688 5682 5676 5670 5663 5655 5647 5639 5631 5622 5613 5603 5593 5583 5572 5560 5548 5537 5526 5514 5502 5490 5479 5469 5458 5447 5437
5731 5729 5728 5730 5728 5724 5722 5720 5717 5713 5709 5705 5701 5697 5693 5687 5681 5676 5669 5663 5656 5648 5640 5632 5623 5615 5606 5596 5586 5576 5565 5554 5542 5529 5517 5506 5494 5483 5471 5460 5450 5440 5430 5420
5722 5719 5719 5719 5716 5714 5713 5710 5706 5702 5698 5694 5690 5685 5680 5674 5669 5662 5656 5649 5642 5634 5625 5617 5607 5598 5589 5579 5569 5558 5547 5535 5523 5511 5498 5487 5476 5464 5453 5442 5432 5423 5413 5405
5714 5711 5712 5708 5706 5704 5701 5698 5694 5690 5686 5682 5677 5673 5667 5662 5656 5649 5642 5635 5627 5619 5611 5601 5591 5582 5573 5563 5552 5541 5530 5518 5505 5493 5480 5468 5457 5446 5435 5424 5415 5406 5397 5390
5705 5705 5702 5698 5695 5692 5689 5686 5682 5678 5674 5670 5665 5660 5654 5648 5642 5635 5628 5620 5612 5604 5595 5585 5575 5565 5555 5545 5534 5523 5511 5499 5487 5475 5463 5450 5439 5428 5418 5407 5398 5390 5383 5376
5694 5693 5690 5687 5684 5681 5678 5674 5670 5666 5662 5657 5652 5647 5641 5635 5628 5621 5613 5605 5597 5588 5579 5570 5559 5548 5537 5526 5516 5504 5493 5481 5469 5458 5446 5434 5422 5411 5401 5392 5383 5376 5369 5364
5683 5681 5678 5676 5672 5669 5666 5662 5658 5653 5649 5644 5639 5633 5627 5621 5614 5606 5598 5590 5581 5572 5563 5553 5542 5532 5520 5508 5497 5486 5475 5463 5452 5440 5428 5418 5407 5396 5386 5378 5369 5362 5357 5351
5672 5670 5667 5665 5661 5657 5653 5649 5645 5641 5636 5631 5625 5619 5613 5606 5599 5591 5583 5574 5565 5556 5546 5536 5525 5514 5503 5491 5479 5467 5457 5446 5434 5423 5412 5401 5392 5385 5375 5366 5359 5351 5345 5340
5660 5657 5655 5652 5649 5645 5641 5637 5633 5628 5623 5618 5612 5605 5599 5592 5584 5576 5567 5558 5548 5539 5529 5519 5508 5497 5485 5473 5462 5450 5439 5428 5417 5406 5396 5386 5378 5370 5365 5358 5350 5342 5336 5330
5648 5645 5643 5640 5636 5633 5629 5624 5620 5615 5610 5604 5597 5591 5584 5577 5569 5560 5551 5541 5532 5522 5512 5501 5491 5479 5467 5456 5445 5434 5422 5411 5401 5391 5382 5373 5365 5358 5351 5345 5341 5334 5328 5321
5636 5633 5631 5627 5624 5620 5616 5611 5607 5601 5596 5590 5583 5576 5569 5561 5553 5544 5535 5525 5515 5505 5495 5484 5473 5462 5450 5439 5428 5418 5407 5396 5386 5377 5369 5361 5353 5346 5340 5334 5328 5324 5319 5313
5623 5620 5618 5614 5611 5607 5602 5598 5593 5588 5582 5575 5569 5562 5554 5546 5537 5528 5518 5508 5498 5488 5478 5467 5456 5445 5433 5422 5412 5402 5392 5382 5372 5364 5356 5349 5342 5336 5330 5324 5319 5313 5309 5304
5611 5608 5605 5601 5598 5593 5589 5584 5579 5573 5567 5561 5554 5546 5538 5530 5521 5512 5502 5492 5481 5471 5460 5449 5438 5428 5416 5405 5395 5386 5378 5369 5360 5352 5345 5338 5332 5325 5320 5315 5309 5304 5299 5294
5598 5595 5592 5588 5584 5580 5575 5570 5565 5559 5552 5545 5538 5530 5522 5513 5504 5495 5486 5476 5465 5455 5443 5431 5421 5411 5400 5390 5380 5372 5364 5356 5348 5341 5334 5328 5322 5316 5310 5305 5300 5295 5291 5286
5585 5582 5578 5575 5570 5566 5561 5556 5550 5544 5537 5530 5522 5514 5505 5496 5487 5478 5468 5458 5447 5438 5428 5417 5406 5395 5385 5376 5367 5359 5351 5344 5337 5330 5324 5318 5312 5307 5301 5297 5292 5287 5282 5278
5572 5569 5565 5561 5556 5551 5546 5540 5534 5528 5521 5513 5505 5497 5489 5479 5469 5460 5450 5441 5429 5418 5410 5400 5390 5381 5372 5363 5354 5346 5339 5332 5326 5320 5314 5308 5303 5298 5293 5288 5283 5278 5274 5269
5558 5555 5551 5547 5542 5537 5531 5525 5519 5512 5504 5496 5488 5479 5471 5462 5452 5442 5432 5424 5415 5403 5394 5384 5375 5366 5358 5350 5342 5335 5328 5322 5316 5310 5305 5299 5294 5289 5284 5279 5275 5271 5266 5262
5545 5541 5537 5532 5527 5522 5515 5509 5502 5495 5488 5479 5470 5461 5452 5444 5435 5426 5416 5405 5397 5388 5378 5370 5361 5352 5344 5337 5331 5324 5317 5312 5306 5301 5296 5291 5286 5281 5276 5272 5267 5263 5259 5254
5530 5526 5522 5517 5512 5506 5500 5492 5485 5478 5470 5462 5453 5443 5434 5425 5416 5407 5401 5391 5381 5372 5363 5355 5347 5339 5332 5326 5319 5313 5308 5302 5297 5293 5288 5283 5278 5273 5269 5264 5260 5255 5251 5247
5515 5511 5506 5501 5495 5489 5483 5476 5468 5460 5452 5444 5435 5425 5415 5408 5400 5391 5381 5374 5365 5357 5349 5342 5334 5327 5320 5314 5309 5303 5298 5293 5289 5285 5280 5275 5270 5266 5261 5257 5253 5248 5244 5240
5500 5495 5490 5484 5478 5472 5466 5459 5452 5444 5435 5427 5418 5409 5399 5390 5382 5375 5366 5359 5351 5343 5336 5329 5322 5316 5309 5304 5299 5294 5290 5285 5281 5277 5273 5268 5264 5259 5255 5250 5246 5242 5238 5233
5484 5479 5473 5467 5460 5454 5447 5440 5433 5426 5417 5410 5402 5393 5384 5375 5366 5359 5351 5344 5337 5330 5323 5317 5311 5305 5299 5294 5290 5285 5281 5278 5274 5270 5266 5261 5257 5253 5248 5244 5240 5236 5232 5227
5467 5462 5456 5450 5443 5436 5429 5421 5414 5407 5399 5391 5384 5377 5368 5360 5352 5345 5338 5331 5324 5318 5312 5306 5300 5295 5290 5286 5282 5278 5274 5270 5267 5263 5259 5255 5251 5247 5242 5238 5234 5230 5226 5222